AO-07 1 07530U 74089B 18250.54186882 -.00000033 00000-0 72827-4 0 9998 2 07530 101.6960 216.6545 0011982 174.1506 299.5855 12.53634295 4911 UO-11 1 14781U 84021B 18250.11312753 .00000038 00000-0 10872-4 0 9998 2 14781 97.6433 282.8062 0008836 164.5449 195.6036 14.83027951856583 LO-19 1 20442U 90005G 18249.84196323 -.00000013 00000-0 11645-4 0 9992 2 20442 98.6134 187.8470 0010605 270.0961 89.9007 14.32903644495587 HUBBLE 1 20580U 90037B 18250.25357413 .00000423 00000-0 14875-4 0 9998 2 20580 28.4694 292.5844 0002504 307.6984 124.9569 15.09088937357878 MET-2/21 1 22782U 93055A 18249.95075292 .00000050 00000-0 31786-4 0 9990 2 22782 082.5504 029.0340 0021035 256.5800 220.5380 13.83812421263219 AO-27 1 22825U 93061C 18249.17361343 .00000007 00000-0 20653-4 0 9997 2 22825 098.8707 226.7889 0009437 108.1135 252.1075 14.30038477300871 IO-26 1 22826U 93061D 18249.94114422 .00000008 00000-0 20798-4 0 9998 2 22826 098.8649 227.5986 0010029 096.8101 263.4222 14.30370466301191 FO-29 1 24278U 96046B 18250.52910839 -.00000027 00000-0 11662-4 0 9991 2 24278 98.5154 77.9335 0349349 257.2320 98.9570 13.53085476 89371 NOAA-15 1 25338U 98030A 18250.57388650 .00000023 00000-0 28590-4 0 9992 2 25338 98.7677 267.0524 0010284 354.5449 5.5617 14.25873955 56758 GO-32 1 25397U 98043D 18249.90988765 -.00000024 00000-0 86179-5 0 9999 2 25397 098.6537 189.0134 0002134 116.5082 243.6316 14.23650725047130 ISS 1 25544U 98067A 18250.66197453 -.00000470 00000-0 15653-6 0 9995 2 25544 51.6433 327.6957 0004888 136.1661 314.2475 15.53834929131342 NO-44 1 26931U 01043C 18249.87680436 -.00000048 00000-0 13233-4 0 9994 2 26931 067.0529 018.6217 0007590 262.8161 097.2078 14.30515673884169 SO-50 1 27607U 02058C 18250.22432733 -.00000025 00000-0 17407-4 0 9990 2 27607 64.5547 199.2623 0073187 311.1453 48.3348 14.75477109845069 CO-55 1 27844U 03031E 18250.06502409 .00000048 00000-0 41190-4 0 9995 2 27844 98.6877 257.5151 0010675 130.3983 229.8128 14.22131404787831 CO-57 1 27848U 03031J 18250.46945507 .00000037 00000-0 36451-4 0 9995 2 27848 98.6963 258.3385 0010434 139.1655 221.0306 14.21733379787756 RS-22 1 27939U 03042A 18250.52103192 .00000065 00000-0 20158-4 0 9999 2 27939 98.0022 27.5841 0011741 245.0723 188.3459 14.66712216798881 NOAA-18 1 28654U 05018A 18250.56583089 -.00000011 00000-0 19411-4 0 9992 2 28654 99.1387 287.6673 0013362 254.9380 105.0313 14.12384284685402 CO-58 1 28895U 05043F 18250.38541912 .00000087 00000-0 25440-4 0 9997 2 28895 97.9203 38.5643 0017199 165.3015 194.8691 14.63577526685903 Falconsat-3 1 30776U 07006E 18249.84703709 .00002009 00000-0 59562-4 0 9990 2 30776 035.4353 106.7715 0002294 029.5404 330.5451 15.34854462636879 CO-65 1 32785U 08021C 18249.87783122 .00000162 00000-0 23104-4 0 9991 2 32785 97.5475 258.1567 0014423 123.8373 236.4220 14.88168737561328 AAUSAT2 1 32788U 08021F 18249.91116987 .00000049 00000-0 95970-5 0 9993 2 32788 097.5180 272.9975 0013435 076.8219 283.4500 14.94438143562286 DO-64 1 32789U 08021G 18249.69408340 .00001410 00000-0 10003-3 0 9991 2 32789 097.5051 302.4157 0012856 026.9392 333.2500 15.06274278563959 CO-66 1 32791U 08021J 18249.56426171 .00000200 00000-0 25790-4 0 9998 2 32791 097.5350 263.3939 0015010 105.9601 254.3272 14.90619168561559 RS-30 1 32953U 08025A 18250.53573581 .00000013 00000-0 19453-4 0 9990 2 32953 82.5050 321.4701 0019384 33.8589 326.3724 12.43085221467005 PRISM 1 33493U 09002B 18250.55653590 .00000582 00000-0 57009-4 0 9997 2 33493 98.1225 155.7791 0015984 46.6749 313.5807 14.96316492522662 NOAA-19 1 33591U 09005A 18250.53389003 .00000071 00000-0 63635-4 0 9997 2 33591 99.1499 230.2268 0015028 95.1425 265.1461 14.12305911493793 TISAT-1 1 36799U 10035E 18249.93207355 .00000399 00000-0 46546-4 0 9991 2 36799 098.1178 028.3713 0011127 303.6165 056.3989 14.90870307442133 JUGNU 1 37839U 11058B 18249.45227763 .00000327 00000-0 32671-4 0 9990 2 37839 019.9607 264.4740 0019151 062.9957 087.6503 14.12627751356768 SRMSAT 1 37841U 11058D 18250.50144681 .00000310 00000-0 25436-4 0 9991 2 37841 19.9723 309.0139 0011789 315.8645 166.2381 14.10613293356516 AO-71 1 37854U 11061E 18250.22102876 .00001350 00000-0 77573-4 0 9992 2 37854 101.7023 357.1954 0163147 190.1087 169.6831 15.05658536374175 HRBE 1 37855U 11061F 18249.87086576 .00000943 00000-0 55878-4 0 9991 2 37855 101.7147 354.1852 0176026 200.3776 159.0352 15.04638252373460 ALMASAT-1 1 38078U 12006B 18250.45847814 .00016306 39069-5 13642-3 0 9999 2 38078 69.4335 348.3189 0224661 340.5118 91.1387 15.44977991353340 HORYU-2 1 38340U 12025D 18249.65049757 .00000131 00000-0 27373-4 0 9996 2 38340 98.3628 274.1510 0010578 316.6765 43.3610 14.75594813339123 RS-40 1 38735U 12041C 18249.91948500 .00000027 00000-0 12195-3 0 9994 2 38735 082.4756 045.6455 0017579 134.5688 225.6830 12.42577382277152 BEESAT-3 1 39135U 13015F 18249.58475905 .00000658 00000-0 43210-4 0 9991 2 39135 64.8687 237.9860 0016700 232.2667 127.6946 15.16849437296997 BEESAT-2 1 39136U 13015G 18250.24291481 .00000782 00000-0 50145-4 0 9995 2 39136 64.8685 238.8718 0016321 233.6062 126.3559 15.16306209297038 ZACUBE-1 1 39417U 13066B 18249.93351845 .00000158 00000-0 26435-4 0 9990 2 39417 097.5831 274.1881 0057650 246.7926 112.7210 14.80974013258892 TRITON-1 1 39427U 13066M 18249.90666310 .00000180 00000-0 36707-4 0 9992 2 39427 097.6473 240.4443 0114052 358.3619 001.7197 14.67709534256376 GOMX-1 1 39430U 13066Q 18250.52724247 .00000174 00000-0 40167-4 0 9998 2 39430 97.7057 221.5053 0152957 70.8109 290.9574 14.59118720255161 LO-74 1 39440U 13066AA 18249.91460224 .00000159 00000-0 29429-4 0 9993 2 39440 097.6011 260.2927 0078995 290.5398 068.7349 14.75715017256770 AO-73 1 39444U 13066AE 18249.95361195 .00000179 00000-0 28563-4 0 9998 2 39444 097.5837 275.8352 0056845 241.6198 117.9278 14.81766076257179 SPROUT 1 39770U 14029E 18250.28963592 .00000415 00000-0 52510-4 0 9999 2 39770 97.8780 350.6709 0008091 304.5910 55.4541 14.86955238232560 DUCHIFAT-1 1 40021U 14033M 18249.83469047 .00000231 00000-0 29597-4 0 9995 2 40021 97.9129 168.6935 0011436 270.6282 89.3626 14.90377701229114 NANOSATCBR1 1 40024U 14033Q 18250.31944618 .00000299 00000-0 37186-4 0 9992 2 40024 97.9056 167.2559 0010809 271.5123 88.4855 14.89631497229106 EO-79 1 40025U 14033R 18250.21322777 .00000160 00000-0 23145-4 0 9995 2 40025 97.9009 165.4297 0011014 276.9944 83.0020 14.88766638228999 DTUSAT-2 1 40030U 14033W 18250.33437780 .00000154 00000-0 22643-4 0 9990 2 40030 97.8950 164.1382 0010459 271.1456 88.8562 14.88370747228959 EO-80 1 40032U 14033Y 18249.72342444 .00000184 00000-0 25977-4 0 9991 2 40032 97.8957 163.5319 0010447 274.0571 85.9451 14.88308829228854 ANTELSAT 1 40034U 14033AA 18250.21079766 .00000144 00000-0 29120-4 0 9993 2 40034 97.7988 123.7982 0057585 294.6101 64.9115 14.73964462226761 VELOX-1 1 40057U 14034E 18250.52664244 .00000213 00000-0 37472-4 0 9990 2 40057 98.2101 3.0296 0012272 68.2175 292.0337 14.77481335225808 DAURIA DX 1 1 40071U 14037C 18250.56564003 .00000085 00000-0 18412-4 0 9995 2 40071 98.3871 25.6567 0009627 60.8305 299.3873 14.81186154225196 UKUBE-1 1 40074U 14037F 18240.91278944 -.00000065 00000-0 -72198-6 0 9995 2 40074 98.3957 21.8881 0005559 76.7066 283.4767 14.83848540224080 HODOYOSHI-1 1 40299U 14070B 18250.52695441 .00000461 00000-0 22564-4 0 9992 2 40299 97.3741 330.8339 0012429 328.5185 156.0448 15.23007213213015 CHUBUSAT-1 1 40300U 14070C 18250.35251082 .00000440 00000-0 22429-4 0 9992 2 40300 97.3565 326.2740 0020251 337.7451 86.3083 15.21688284212770 QSAT-EOS 1 40301U 14070D 18250.53691071 .00001072 00000-0 45487-4 0 9990 2 40301 97.3545 328.0958 0025274 325.2971 92.0279 15.25007327212979 FIREBIRD FU3 1 40377U 15003B 18250.21988392 .00001954 00000-0 82927-4 0 9999 2 40377 99.0802 168.2155 0129672 318.2267 40.9117 15.17560641198764 FIREBIRD FU4 1 40378U 15003C 18250.34012964 .00002008 00000-0 85020-4 0 9995 2 40378 99.0804 168.4213 0129844 317.7180 41.4093 15.17569430198789 GRIFEX 1 40379U 15003D 18250.46795488 .00001435 00000-0 66369-4 0 9996 2 40379 99.0821 164.3002 0137323 331.1784 28.1904 15.14581944198550 NO-84 1 40654U 15025D 18250.47240962 .00004488 00000-0 77222-4 0 04030 2 40654 054.9928 024.2100 0151648 319.9637 039.0244 15.41738385068539 NO-83 1 40655U 15025E 18250.46244469 .00016330 00000-0 16035-3 0 04680 2 40655 054.9753 317.3343 0100654 000.9103 359.2126 15.60040138069111 DEORBITSAIL 1 40719U 15032E 18249.77952491 .00000289 00000-0 48707-4 0 9999 2 40719 97.9346 141.9293 0017046 140.4674 219.7783 14.76503467170215 NUDT-PHONESAT 1 40900U 15049B 18250.51450084 .00001578 00000-0 72792-4 0 9997 2 40900 97.4420 257.8342 0015135 99.8986 260.3959 15.21629983164434 XW-2A 1 40903U 15049E 18250.46844769 .00001539 00000-0 39552-4 0 9995 2 40903 97.3780 286.1252 0015847 93.2818 267.0241 15.40789867166475 XW-2C 1 40906U 15049H 18250.53530870 .00000476 00000-0 28725-4 0 9990 2 40906 97.4625 252.5314 0016681 103.1265 257.1830 15.15296530163964 XW-2D 1 40907U 15049J 18250.54536751 .00000499 00000-0 29801-4 0 9997 2 40907 97.4600 252.2297 0016054 100.9829 259.3211 15.15455559163976 LILACSAT-2 1 40908U 15049K 18250.52073543 .00000240 00000-0 16969-4 0 9996 2 40908 97.4715 251.4559 0017660 103.7172 256.6027 15.13575255163825 XW-2F 1 40910U 15049M 18250.49373661 .00000762 00000-0 42188-4 0 9990 2 40910 97.4596 253.6441 0016790 96.7837 263.5307 15.16700193163935 XW-2B 1 40911U 15049N 18250.49994995 .00000482 00000-0 28954-4 0 9994 2 40911 97.4633 252.7527 0015957 101.7279 258.5745 15.15397037163864 DCBB 1 40912U 15049P 18250.44763193 .00000763 00000-0 39696-4 0 9991 2 40912 97.4519 256.6229 0017140 84.7777 50.9108 15.18937566164159 TW-1C 1 40926U 15051B 18250.41323866 .00007328 00000-0 13095-3 0 9993 2 40926 97.1762 292.4044 0008921 348.0326 137.3426 15.50282792166040 TW-1A 1 40928U 15051D 18250.40265324 .00002239 00000-0 59727-4 0 9997 2 40928 97.1799 282.7562 0012677 31.7442 96.5588 15.39112928165423 IO-86 1 40931U 15052B 18250.53021278 .00000804 00000-0 22988-4 0 9999 2 40931 6.0003 282.9447 0012504 97.1510 263.0022 14.76584412159191 LQSat 1 40958U 15057A 18250.56202392 .00000022 00000-0 11126-4 0 9998 2 40958 97.9341 321.8664 0019506 73.8378 286.4982 14.73046225156979 AO-85 1 40967U 15058D 18250.46836205 .00000087 00000-0 27116-4 0 04402 2 40967 064.7788 301.4590 0212724 288.7168 069.0926 14.75768882065793 ATHENOXAT-1 1 41168U 15077C 18250.35303241 .00001803 00000-0 61516-4 0 9992 2 41168 14.9812 138.8321 0012305 101.0723 226.7821 15.12954349150836 ChubuSat-2 1 41338U 16012B 18249.83078724 .00000279 00000-0 15027-4 0 9999 2 41338 31.0026 154.9142 0013877 162.5750 197.5363 15.00019524140108 ChubuSat-3 1 41339U 16012C 18250.10056123 .00000289 00000-0 15774-4 0 9991 2 41339 31.0107 151.6821 0013605 171.9584 188.1272 15.00204450140137 Horyu-4 1 41340U 16012D 18249.84811023 .00000403 00000-0 23990-4 0 9997 2 41340 31.0046 147.2936 0014152 183.9060 176.1466 15.01047638140179 OUFTI-1 1 41458U 16025C 18250.42609622 .00000188 00000-0 14531-4 0 9998 2 41458 98.1286 317.6550 0167995 231.5705 127.0351 15.04886969129800 e-st@r-II 1 41459U 16025D 18250.38168936 .00000979 00000-0 55439-4 0 9992 2 41459 98.1313 317.4126 0169278 232.3911 126.1828 15.04612994129784 AAUSAT4 1 41460U 16025E 18250.41233668 .00000981 00000-0 54882-4 0 9997 2 41460 98.1191 318.0785 0160135 228.1399 130.6093 15.06120199129860 LO-87 1 41557U 16033B 18250.31150651 .00000987 00000-0 39945-4 0 9991 2 41557 97.4348 334.3090 0012546 216.2751 143.7639 15.27049918126696 NuSat2 1 41558U 16033C 18250.47560449 .00000998 00000-0 38817-4 0 9998 2 41558 97.4368 334.6791 0012144 219.2409 140.7951 15.28350224126710 Lapan A3 1 41603U 16040E 18250.52280723 -.00000015 00000-0 24826-5 0 9994 2 41603 97.4044 310.5154 0012604 318.6953 153.6541 15.19600901122586 Swayam 1 41607U 16040J 18250.41566391 .00001069 00000-0 49158-4 0 9997 2 41607 97.4060 312.2364 0012406 315.1428 44.8805 15.22461420122612 Pratham 1 41783U 16059A 18250.41831483 .00000029 00000-0 15051-4 0 9999 2 41783 98.1102 310.6173 0033302 195.2242 164.7961 14.62941076103988 AlSat 1N 1 41789U 16059G 18250.44308967 .00000028 00000-0 14392-4 0 9990 2 41789 98.1116 312.0321 0028206 186.0672 174.0201 14.64176851104055 ScatSat 1 41790U 16059H 18250.24328083 .00000004 00000-0 12310-4 0 9993 2 41790 98.2523 296.5109 0017780 195.9850 164.0786 14.50866913103081 TY-1 1 41844U 16066D 18250.57946588 .00001136 00000-0 50439-4 0 9994 2 41844 97.4066 256.4627 0017169 104.9314 9.3111 15.23471183101421 Pegasus-1 1 41846U 16066F 18249.91248847 .00000190 00000-0 39558-4 0 9993 2 41846 098.7494 280.0218 0368130 004.5656 355.8739 14.37395175095643 CAS-2T 1 41847U 16066G 18249.94442416 .00000056 00000-0 19314-4 0 9994 2 41847 098.7451 280.5309 0366179 001.7658 358.4727 14.37919121096072 TO-89 1 41932U 98067KU 18250.44589599 .00046575 00000-0 22120-3 0 9995 2 41932 51.6290 275.1596 0002272 99.3822 260.7437 15.82437429 93764 AOBA-V3LOX3 1 41935U 98067KX 18250.42080032 .00089305 14076-4 29339-3 0 9993 2 41935 51.6312 267.3936 0003193 63.2729 296.8604 15.90544782 93960 EO-88 1 42017U 17008BX 18249.74604447 .00001169 00000-0 50201-4 0 9999 2 42017 97.4413 314.2987 0008125 93.4271 266.7896 15.24671970 86493 HAVELSAT 1 42700U 98067LH 18250.33535974 .00031096 00000-0 19979-3 0 9995 2 42700 51.6311 293.2834 0000862 220.0913 140.0023 15.75935413 74954 SOMP2 1 42701U 98067LJ 18250.51153571 .00029436 00000-0 20088-3 0 9993 2 42701 51.6336 294.4801 0001081 197.5163 162.5799 15.74575584 74944 PHOENIX 1 42706U 98067LP 18250.36956415 .00021407 00000-0 16112-3 0 9992 2 42706 51.6345 296.5526 0001500 69.8518 290.2641 15.72481073 74826 X-CubeSat 1 42707U 98067LQ 18250.33975692 .00036719 00000-0 22440-3 0 9991 2 42707 51.6327 292.4666 0001961 55.9127 304.2059 15.76988636 74864 qbee 1 42708U 98067LR 18250.34067232 .00029652 00000-0 19282-3 0 9993 2 42708 51.6325 294.0762 0001800 40.3257 319.7876 15.75685625 74805 ZA-AeroSat 1 42713U 98067LU 18250.40801968 .00021233 00000-0 16993-3 0 9991 2 42713 51.6341 299.8012 0002281 81.9462 278.1795 15.71019714 74447 LINK 1 42714U 98067LV 18250.47061249 .00345289 61910-4 63908-3 0 9998 2 42714 51.6165 276.4664 0006838 34.8992 325.2465 16.00559691 74863 UPSat 1 42716U 98067LX 18250.34983560 .00076276 00000-0 31946-3 0 9998 2 42716 51.6289 284.9818 0002497 27.2340 332.8794 15.84897291 74767 SpaceCube 1 42717U 98067LY 18250.37456667 .00031338 00000-0 20516-3 0 9996 2 42717 51.6291 294.2515 0000182 343.8957 16.2037 15.75499873 73888 Hoopoe 1 42718U 98067LZ 18250.35166053 .00049369 00000-0 26056-3 0 9990 2 42718 51.6276 289.5581 0001349 44.5720 315.5390 15.80123612 73946 NJUST-1 1 42722U 98067MB 18250.39572448 .00018205 00000-0 15369-3 0 9998 2 42722 51.6352 302.0033 0003389 173.5541 186.5500 15.69845275 73480 UNSW-EC0 1 42723U 98067MC 18250.35797061 .00059368 00000-0 28882-3 0 9994 2 42723 51.6376 288.9415 0000835 74.0963 286.0132 15.81820294 73631 LO-90 1 42725U 98067ME 18250.34595426 .00028537 00000-0 20468-3 0 9992 2 42725 51.6354 297.8974 0001781 163.9372 196.1683 15.73432006 73432 nSIGHT1 1 42726U 98067MF 18250.39015510 .00008458 00000-0 97642-4 0 9998 2 42726 51.6392 312.5772 0004360 175.1027 185.0010 15.62847255 73259 SNUSAT 1B 1 42727U 98067MG 18250.35899445 .00027471 00000-0 19733-3 0 9992 2 42727 51.6322 297.9107 0004053 127.6613 232.4754 15.73413206 73409 QBITO 1 42728U 98067MH 18250.44239771 .00034205 00000-0 21822-3 0 9998 2 42728 51.6365 294.0899 0000781 66.2277 293.8804 15.76046730 73304 Aalto-2 1 42729U 98067MJ 18250.40265051 .00037312 00000-0 23245-3 0 9998 2 42729 51.6307 293.7272 0000882 41.3415 318.7652 15.76544857 73314 SUSat 1 42730U 98067MK 18250.36562689 .00030539 00000-0 21191-3 0 9994 2 42730 51.6342 296.5003 0000661 99.2527 260.8547 15.74167048 73264 i-INSPIRE II 1 42731U 98067ML 18250.50177784 .00059200 00000-0 27610-3 0 9997 2 42731 51.6334 286.7917 0003820 75.6204 284.5222 15.82719704 73456 PolyITAN-2-SAU 1 42732U 98067MM 18250.35765001 .00033172 00000-0 20584-3 0 9999 2 42732 51.6316 293.3943 0003895 101.6697 258.4740 15.76689253 73350 ExAlta-1 1 42734U 98067MP 18250.36675248 .00075631 00000-0 32412-3 0 9994 2 42734 51.6256 286.5306 0002131 89.3547 270.7701 15.84420566 73397 Aoxiang-1 1 42735U 98067MQ 18250.53268747 .00019427 00000-0 16060-3 0 9998 2 42735 51.6341 300.6348 0003700 170.7762 189.3304 15.70301652 74646 BeEagleSat 1 42736U 98067MR 18250.37049377 .00025262 00000-0 18980-3 0 9994 2 42736 51.6336 298.7782 0003001 167.7884 192.3188 15.72408521 73340 CAS-4B 1 42759U 17034B 18250.53456660 .00000149 00000-0 22751-4 0 9998 2 42759 43.0204 351.1741 0010881 267.0711 216.6926 15.09359240 67896 CAS-4A 1 42761U 17034D 18250.57866818 .00000060 00000-0 17237-4 0 9990 2 42761 43.0202 350.6493 0011226 268.5528 217.2074 15.09434871 67896 UCLSat 1 42765U 17036A 18249.80171849 .00000957 00000-0 44844-4 0 9992 2 42765 97.3935 308.3100 0012778 144.1175 216.0922 15.22035102 67124 NIUSat 1 42766U 17036B 18249.73962582 .00000788 00000-0 39035-4 0 9995 2 42766 97.3935 307.3451 0017200 134.8451 225.4185 15.20544023 66928 LituanicaSAT 2 1 42768U 17036D 18250.40777560 .00001651 00000-0 75841-4 0 9998 2 42768 97.3954 308.4731 0016942 134.4052 225.8574 15.21669270 67064 Aalto 1 1 42775U 17036L 18249.94962570 .00000611 00000-0 30673-4 0 9999 2 42775 097.3927 307.7974 0015437 133.9369 226.3143 15.20872305066922 URSA MAIOR 1 42776U 17036M 18249.80008161 .00000694 00000-0 34349-4 0 9997 2 42776 097.3934 307.7194 0015258 134.5503 225.6982 15.20963446066901 Max Valier Sat 1 42778U 17036P 18249.93472006 .00000748 00000-0 36271-4 0 9992 2 42778 097.3961 308.2637 0013824 138.1222 222.1074 15.21461411066939 Pegasus 1 42784U 17036V 18249.84956147 .00000915 00000-0 43239-4 0 9990 2 42784 097.3938 308.2624 0013307 144.3264 215.8864 15.21836714066935 NUDATSat 1 42787U 17036Y 18249.86641845 .00001339 00000-0 60727-4 0 9993 2 42787 097.3947 308.5639 0012884 143.5314 216.6803 15.22489737066799 SUCHAI 1 1 42788U 17036Z 18249.85737748 .00001094 00000-0 50665-4 0 9999 2 42788 097.3940 308.4048 0012928 143.8546 216.3567 15.22134760067018 SKCUBE 1 42789U 17036AA 18249.79340976 .00001005 00000-0 46860-4 0 9990 2 42789 097.3937 308.3287 0012755 144.0029 216.2069 15.22084165066924 VZLUSAT 1 1 42790U 17036AB 18249.92047300 .00001319 00000-0 59851-4 0 9994 2 42790 097.3944 308.6240 0012428 143.4402 216.7686 15.22505478066959 VENTA 1 1 42791U 17036AC 18249.70675270 .00001002 00000-0 46680-4 0 9999 2 42791 097.3937 308.2880 0012389 144.6576 215.5484 15.22123869066907 Robusta 1B 1 42792U 17036AD 18250.41155015 .00001060 00000-0 49044-4 0 9991 2 42792 97.3936 309.0159 0012378 142.6651 217.5448 15.22238403 67033 D-SAT 1 42794U 17036AF 18249.79028996 .00000076 00000-0 12157-4 0 9990 2 42794 097.5838 301.3288 0127208 011.4092 348.9962 14.90922954065883 BIRD-J 1 42820U 98067MU 18249.59967323 .00022406 00000-0 17668-3 0 9999 2 42820 51.6341 305.6457 0002836 76.5939 283.5375 15.71337076 66641 BIRD-G 1 42821U 98067MV 18250.19337253 .00021173 00000-0 17240-3 0 9997 2 42821 51.6340 303.6162 0002740 82.6678 277.4631 15.70605304 66709 BIRD-M 1 42822U 98067MW 18250.22261934 .00022616 00000-0 18092-3 0 9993 2 42822 51.6343 303.0651 0002716 82.5990 277.5316 15.70985539 66712 BIRD-B 1 42823U 98067MX 18249.57597187 .00023477 00000-0 18647-3 0 9994 2 42823 51.6349 306.2697 0003759 115.9174 244.2212 15.71128089 66612 BIRD-N 1 42824U 98067MY 18249.61273997 .00022029 00000-0 17744-3 0 9999 2 42824 51.6352 306.5366 0003676 116.5973 243.5402 15.70836081 66604 TechnoSat 1 42829U 17042E 18250.51616997 .00000080 00000-0 13561-4 0 9997 2 42829 97.5875 149.7316 0012773 288.3008 71.6821 14.90856371 62599 TOMSK-TPU 120 1 42910U 98067MZ 18250.48242536 .00014605 00000-0 14092-3 0 9991 2 42910 51.6346 308.5563 0004546 150.1454 209.9802 15.66742509 60272 TANYUSHA 1 1 42911U 98067NA 18250.40247319 .00017619 00000-0 15932-3 0 9990 2 42911 51.6353 307.3104 0004008 141.2700 218.8584 15.68186958 60264 TANYUSHA 2 1 42912U 98067NB 18250.37540223 .00016067 00000-0 15029-3 0 9990 2 42912 51.6377 308.6244 0003418 154.5013 205.6153 15.67430400 60267 SFERA 2 1 42913U 98067NC 18250.16763668 .00063250 00000-0 32663-3 0 9997 2 42913 51.6336 295.8406 0001362 37.3122 322.7975 15.80498613 60375 TNS 0-2 1 42914U 98067ND 18250.53793656 .00015402 00000-0 14943-3 0 9996 2 42914 51.6361 308.9808 0003671 148.6606 211.4609 15.66555666 60266 QIKCOM-1 1 42983U 98067NF 18250.51720290 .00002589 00000-0 42288-4 0 9990 2 42983 51.6407 324.6818 0004387 138.2539 221.8788 15.56761613 49040 AO-91 1 43017U 17073E 18249.78570851 .00000787 00000-0 67094-4 0 9990 2 43017 97.7077 177.5201 0259787 6.3481 354.0916 14.78176579 43164 EcAMSat 1 43019U 98067NG 18250.41402926 .00004222 00000-0 62159-4 0 9998 2 43019 51.6412 323.9993 0005233 115.4725 244.6809 15.57850918131360 PICSAT 1 43132U 18004X 18249.92252031 .00001028 00000-0 46977-4 0 9992 2 43132 097.5269 312.7984 0010391 163.8734 196.2835 15.22826891036156 AO-92 1 43137U 18004AC 18250.17089095 .00000792 00000-0 36863-4 0 9994 2 43137 97.5264 313.0715 0009889 164.3136 195.8409 15.22869590 36182 TianYi 2 1 43155U 18008A 18250.50356591 .00000389 00000-0 27290-4 0 9999 2 43155 97.5191 323.5649 0016818 218.8357 266.1329 15.10676443 34915 Zhou Enlai 1 43156U 18008B 18250.52105838 .00000219 00000-0 17331-4 0 9995 2 43156 97.5235 323.5293 0014225 213.4011 272.9600 15.10145671 34908 TianYi 6 1 43158U 18008D 18250.35416193 .00000662 00000-0 44797-4 0 9995 2 43158 97.5195 323.1467 0013432 212.5632 208.5415 15.09839082 34859 S-Net G 1 43186U 18014G 18250.33268792 -.00000193 00000-0 -11853-4 0 9999 2 43186 97.7178 157.7275 0009918 233.7062 126.3244 14.96492593 32602 S-Net H 1 43187U 18014H 18250.33256419 -.00000197 00000-0 -12205-4 0 9999 2 43187 97.7176 157.7226 0009913 233.7077 126.3229 14.96493367 32601 S-Net J 1 43188U 18014J 18250.33244442 -.00000207 00000-0 -13071-4 0 9997 2 43188 97.7179 157.7296 0009902 233.7965 126.2342 14.96494046 32606 S-Net K 1 43189U 18014K 18250.53320383 -.00000174 00000-0 -10189-4 0 9999 2 43189 97.7175 157.9194 0009918 232.8743 127.1573 14.96492879 31183 FMN 1 1 43192U 18015A 18250.56206203 .00001732 00000-0 76235-4 0 9994 2 43192 97.3658 17.8174 0015911 209.3383 150.6965 15.23090350 33053 Shaonian Xing 1 43199U 18015H 18250.56434390 .00001193 00000-0 52166-4 0 9999 2 43199 97.3441 17.4818 0016465 223.0041 136.9912 15.23895296 33084 1KUNS-PF 1 43466U 98067NP 18250.42250553 .00010281 00000-0 14473-3 0 9999 2 43466 51.6403 327.0458 0001026 41.8419 318.2651 15.57282494 18506 UBAKUSAT 1 43467U 98067NQ 18250.43678482 .00006837 00000-0 10034-3 0 9997 2 43467 51.6408 327.1444 0003051 71.7112 288.4211 15.56786325 18512 Irazu 1 43468U 98067NR 18250.21326185 .00011932 00000-0 16429-3 0 9990 2 43468 51.6405 327.8984 0001011 28.9564 331.1484 15.57705177118465 EnduroSat One 1 43551U 98067NZ 18249.70227910 .00008966 00000-0 13494-3 0 9993 2 43551 51.6404 331.9790 0006202 154.0633 206.0670 15.55637127 8612 EQUISat 1 43552U 98067PA 18250.21735272 .00007786 00000-0 11850-3 0 9990 2 43552 51.6405 329.4198 0006488 156.6089 203.5199 15.55547145 8659 UiTMSat 1 1 43589U 98067PD 18250.43626987 .00008276 00000-0 12770-3 0 9993 2 43589 51.6405 328.6294 0005733 166.6673 193.4470 15.55071353 4422 Maya 1 1 43590U 98067PE 18249.53609327 .00008242 00000-0 12714-3 0 9994 2 43590 051.6407 333.1176 0005878 164.4642 195.6531 15.55084664004216 Bhutan 1 1 43591U 98067PF 18250.43509991 .00008318 00000-0 12799-3 0 9999 2 43591 51.6406 328.6218 0005933 168.9364 191.1759 15.55137707 4359 SiriusSat 1 1 43595U 98067PG 18250.25086640 .00007328 00000-0 11536-3 0 9992 2 43595 51.6406 329.6372 0003844 114.2240 245.9153 15.54718299 3503 SiriusSat 2 1 43596U 98067PH 18250.25281012 .00007163 00000-0 11347-3 0 9990 2 43596 51.6415 329.6528 0004463 118.4538 241.6903 15.54583919 3506 /EX
